Cherokee, IA

9:46 AM CST on February 24, 2017 (GMT -0600)
Cherokee Municipal

Weather History for KCKP - May, 2014

Change the Weather History Date:

Monday, May 5, 2014

  Actual Average Record
Temperature  
Mean Temperature 56 °F -  
Max Temperature 71 °F 71 °F 89 °F (1980)
Min Temperature 42 °F 43 °F 22 °F (1968)
Degree Days  
Heating Degree Days 8    
Growing Degree Days 6 (Base 50)    
Moisture  
Dew Point 37 °F    
Average Humidity 53    
Maximum Humidity 77    
Minimum Humidity 30    
Precipitation  
Precipitation 0.00 in - - ()
Sea Level Pressure  
Sea Level Pressure 29.88 in    
Wind  
Wind Speed 8 mph (ENE)    
Max Wind Speed 15 mph    
Max Gust Speed 22 mph    
Visibility 10 miles    
Events      
Averages and records for this station are not official NWS values.
T = Trace of Precipitation, MM = Missing Value Source: NWS Daily Summary

Daily Weather History Graph

Daily Weather History Graph

Search for Another Location

Airport or City:

Trip Planner

Search our weather history database for the weather conditions in past years. The results will help you decide how hot, cold, wet, or windy it might be!

Date:

Astronomy

May. 05, 2014 Rise Set
Actual Time 6:11 AM CDT 8:27 PM CDT
Civil Twilight 5:40 AM CDT 8:58 PM CDT
Nautical Twilight 5:01 AM CDT 9:37 PM CDT
Astronomical Twilight 4:18 AM CDT 10:20 PM CDT
Moon 11:32 AM CDT (5/5) 1:11 AM CDT (5/5)
Length of Visible Light 15h 18m
Length of Day
14h 15m
Waxing Crescent, 37% of the Moon is Illuminated
May 5
Waxing Crescent
May 6
First Quarter
May 14
Full
May 21
Last Quarter
May 28
New

Hourly Weather History & Observations

Time (CDT) Temp. Windchill Dew Point Humidity Pressure Visibility Wind Dir Wind Speed Gust Speed Precip Events Conditions
12:15 AM 48.2 °F - 36.9 °F 65% 29.92 in 10.0 mi NNE 5.8 mph - N/A   Clear
12:35 AM 47.3 °F - 36.3 °F 66% 29.92 in 10.0 mi NE 4.6 mph - N/A   Clear
12:55 AM 46.9 °F - 35.8 °F 65% 29.92 in 10.0 mi NE 4.6 mph - N/A   Clear
1:15 AM 46.2 °F 44.1 °F 35.1 °F 65% 29.92 in 10.0 mi NE 4.6 mph - N/A   Clear
1:35 AM 44.8 °F 42.4 °F 34.0 °F 66% 29.91 in 10.0 mi NE 4.6 mph - N/A   Clear
1:55 AM 44.2 °F 41.8 °F 34.3 °F 68% 29.90 in 10.0 mi NE 4.6 mph - N/A   Clear
2:15 AM 43.7 °F 41.1 °F 34.5 °F 70% 29.90 in 10.0 mi NNE 4.6 mph - N/A   Clear
2:35 AM 44.1 °F 40.8 °F 35.8 °F 73% 29.90 in 10.0 mi NNE 5.8 mph - N/A   Clear
2:55 AM 44.2 °F 41.0 °F 35.6 °F 72% 29.88 in 10.0 mi ENE 5.8 mph - N/A   Clear
3:15 AM 43.9 °F 40.5 °F 35.2 °F 72% 29.88 in 10.0 mi ENE 5.8 mph - N/A   Clear
3:35 AM 43.7 °F 41.1 °F 35.6 °F 73% 29.88 in 10.0 mi NE 4.6 mph - N/A   Clear
3:55 AM 43.7 °F 41.1 °F 36.0 °F 74% 29.88 in 10.0 mi North 4.6 mph - N/A   Clear
4:15 AM 43.3 °F 39.9 °F 35.6 °F 74% 29.88 in 10.0 mi North 5.8 mph - N/A   Clear
4:35 AM 43.7 °F 41.1 °F 35.8 °F 74% 29.88 in 10.0 mi NNE 4.6 mph - N/A   Clear
4:55 AM 43.9 °F 39.3 °F 36.1 °F 74% 29.88 in 10.0 mi NNE 8.1 mph - N/A   Clear
5:15 AM 44.1 °F 40.8 °F 36.1 °F 74% 29.89 in 10.0 mi NNE 5.8 mph - N/A   Clear
5:35 AM 43.7 °F 39.7 °F 36.5 °F 76% 29.88 in 10.0 mi NE 6.9 mph - N/A   Clear
5:55 AM 43.3 °F 39.2 °F 36.7 °F 77% 29.90 in 10.0 mi NNE 6.9 mph - N/A   Clear
6:15 AM 43.0 °F 39.5 °F 36.3 °F 77% 29.90 in 10.0 mi NE 5.8 mph - N/A   Clear
6:35 AM 42.4 °F 38.1 °F 35.6 °F 77% 29.90 in 10.0 mi NE 6.9 mph - N/A   Clear
6:55 AM 42.8 °F 39.3 °F 35.8 °F 76% 29.90 in 10.0 mi NE 5.8 mph - N/A   Clear
7:15 AM 43.5 °F 39.4 °F 36.5 °F 76% 29.92 in 10.0 mi NE 6.9 mph - N/A   Clear
7:35 AM 44.6 °F 40.2 °F 37.6 °F 76% 29.91 in 10.0 mi ENE 8.1 mph - N/A   Clear
7:55 AM 46.4 °F 41.5 °F 37.9 °F 72% 29.91 in 10.0 mi ENE 10.4 mph - N/A   Clear
8:15 AM 48.0 °F - 37.4 °F 67% 29.92 in 10.0 mi ENE 10.4 mph - N/A   Clear
8:35 AM 49.3 °F - 37.0 °F 63% 29.92 in 10.0 mi East 12.7 mph - N/A   Clear
8:55 AM 50.2 °F - 36.0 °F 58% 29.92 in 10.0 mi East 9.2 mph 16.1 mph N/A   Clear
9:15 AM 51.4 °F - 36.1 °F 56% 29.94 in 10.0 mi ENE 10.4 mph - N/A   Clear
9:35 AM 52.7 °F - 35.2 °F 52% 29.92 in 10.0 mi ENE 10.4 mph - N/A   Clear
9:55 AM 54.5 °F - 35.8 °F 49% 29.92 in 10.0 mi East 8.1 mph - N/A   Clear
10:15 AM 55.4 °F - 35.4 °F 47% 29.91 in 10.0 mi East 9.2 mph - N/A   Clear
10:35 AM 56.7 °F - 35.6 °F 45% 29.90 in 10.0 mi ENE 10.4 mph - N/A   Clear
10:55 AM 57.9 °F - 35.6 °F 43% 29.90 in 10.0 mi ENE 10.4 mph - N/A   Clear
11:15 AM 59.4 °F - 36.1 °F 42% 29.90 in 10.0 mi ENE 11.5 mph - N/A   Clear
11:35 AM 60.6 °F - 37.2 °F 42% 29.91 in 10.0 mi ENE 9.2 mph - N/A   Clear
11:55 AM 61.7 °F - 36.9 °F 40% 29.91 in 10.0 mi East 8.1 mph - N/A   Clear
12:15 PM 62.6 °F - 36.9 °F 38% 29.91 in 10.0 mi NE 8.1 mph - N/A   Clear
12:35 PM 63.7 °F - 37.8 °F 38% 29.90 in 10.0 mi NNE 13.8 mph 21.9 mph N/A   Clear
12:55 PM 64.6 °F - 39.6 °F 40% 29.89 in 10.0 mi NNE 10.4 mph 16.1 mph N/A   Clear
1:15 PM 65.7 °F - 39.4 °F 38% 29.89 in 10.0 mi NE 10.4 mph 18.4 mph N/A   Clear
1:35 PM 66.4 °F - 37.6 °F 35% 29.88 in 10.0 mi NE 11.5 mph 21.9 mph N/A   Clear
1:55 PM 66.7 °F - 37.6 °F 34% 29.87 in 10.0 mi NE 12.7 mph 18.4 mph N/A   Clear
2:15 PM 67.5 °F - 38.5 °F 35% 29.87 in 10.0 mi ENE 13.8 mph 17.3 mph N/A   Clear
2:35 PM 68.0 °F - 38.5 °F 34% 29.87 in 10.0 mi ENE 15.0 mph 20.7 mph N/A   Clear
2:55 PM 68.9 °F - 38.7 °F 33% 29.86 in 10.0 mi ENE 15.0 mph 19.6 mph N/A   Clear
3:15 PM 69.3 °F - 38.5 °F 32% 29.86 in 10.0 mi East 11.5 mph - N/A   Clear
3:35 PM 69.6 °F - 37.8 °F 31% 29.86 in 10.0 mi East 11.5 mph 20.7 mph N/A   Clear
3:55 PM 70.2 °F - 38.8 °F 32% 29.85 in 10.0 mi East 12.7 mph 19.6 mph N/A   Clear
4:15 PM 70.7 °F - 37.8 °F 30% 29.85 in 10.0 mi East 13.8 mph 17.3 mph N/A   Clear
4:35 PM 71.1 °F - 38.3 °F 30% 29.85 in 10.0 mi East 13.8 mph 17.3 mph N/A   Clear
4:55 PM 70.5 °F - 38.8 °F 32% 29.84 in 10.0 mi East 12.7 mph 17.3 mph N/A   Clear
5:15 PM 70.7 °F - 39.0 °F 32% 29.84 in 10.0 mi East 15.0 mph 18.4 mph N/A   Clear
5:35 PM 70.7 °F - 38.5 °F 31% 29.84 in 10.0 mi East 15.0 mph 20.7 mph N/A   Clear
5:55 PM 70.3 °F - 38.1 °F 31% 29.84 in 10.0 mi East 12.7 mph 21.9 mph N/A   Clear
6:15 PM 69.8 °F - 38.5 °F 32% 29.83 in 10.0 mi East 12.7 mph - N/A   Clear
6:35 PM 69.6 °F - 38.3 °F 32% 29.83 in 10.0 mi East 13.8 mph 18.4 mph N/A   Clear
6:55 PM 68.2 °F - 39.2 °F 35% 29.84 in 10.0 mi ESE 12.7 mph 16.1 mph N/A   Clear
7:15 PM 68.2 °F - 39.0 °F 34% 29.83 in 10.0 mi East 13.8 mph 19.6 mph N/A   Clear
7:35 PM 66.9 °F - 39.2 °F 36% 29.84 in 10.0 mi East 10.4 mph - N/A   Clear
7:55 PM 64.4 °F - 39.6 °F 40% 29.84 in 10.0 mi East 6.9 mph - N/A   Clear
8:15 PM 62.2 °F - 39.9 °F 44% 29.84 in 10.0 mi East 8.1 mph - N/A   Clear
8:35 PM 60.4 °F - 40.3 °F 47% 29.84 in 10.0 mi East 6.9 mph - N/A   Clear
8:55 PM 58.6 °F - 40.3 °F 51% 29.84 in 10.0 mi East 5.8 mph - N/A   Clear
9:15 PM 57.4 °F - 40.3 °F 53% 29.84 in 10.0 mi East 5.8 mph - N/A   Clear
9:35 PM 56.8 °F - 40.3 °F 54% 29.85 in 10.0 mi East 5.8 mph - N/A   Clear
9:55 PM 56.3 °F - 40.1 °F 55% 29.85 in 10.0 mi East 5.8 mph - N/A   Clear
10:15 PM 56.3 °F - 39.7 °F 54% 29.85 in 10.0 mi East 6.9 mph - N/A   Clear
10:35 PM 55.4 °F - 39.4 °F 55% 29.85 in 10.0 mi East 8.1 mph - N/A   Clear
10:55 PM 54.7 °F - 39.2 °F 56% 29.85 in 10.0 mi East 6.9 mph - N/A   Clear
11:15 PM 54.0 °F - 38.8 °F 57% 29.85 in 10.0 mi East 8.1 mph - N/A   Clear
11:35 PM 53.8 °F - 38.7 °F 57% 29.85 in 10.0 mi East 9.2 mph - N/A   Clear